| time (UTC) | temp F | wind direction | speed MPH | gust MPH | rain 1hr in | rain 24hr in | rain mn in | humidity % | barometer mb |
| 20260505041548 | 60 | 120 | 2.0 | 4.0 | 0.00 | 0.00 | 0.00 | 91 | 1013.7 |
| 20260505040546 | 60 | 137 | 1.0 | 4.0 | 0.00 | 0.00 | 0.00 | 89 | 1013.5 |
| 20260505035623 | 60 | 144 | 1.0 | 2.0 | 0.00 | 0.00 | 0.00 | 88 | 1013.5 |
| 20260505034540 | 60 | 135 | 0.0 | 2.0 | 0.00 | 0.00 | 0.00 | 84 | 1013.4 |
| 20260505033538 | 60 | 148 | 0.0 | 2.0 | 0.00 | 0.00 | 0.00 | 73 | 1013.6 |
| 20260505032535 | 61 | 0.0 | 0.0 | 0.00 | 0.00 | 0.00 | 61 | 1013.7 | |
| 20260505031533 | 61 | 101 | 0.0 | 2.0 | 0.00 | 0.00 | 0.00 | 61 | 1013.6 |
| 20260505030530 | 59 | 0 | 0.0 | 2.0 | 0.00 | 0.00 | 0.00 | 66 | 1013.6 |
| 20260505025527 | 60 | 68 | 0.0 | 2.0 | 0.00 | 0.00 | 0.00 | 67 | 1013.5 |
| 20260505024524 | 58 | 0.0 | 0.0 | 0.00 | 0.06 | 0.00 | 75 | 1013.6 | |
| 20260505023522 | 57 | 11 | 0.0 | 2.0 | 0.00 | 0.06 | 0.00 | 89 | 1013.5 |
| 20260505022519 | 58 | 0.0 | 0.0 | 0.00 | 0.06 | 0.00 | 94 | 1013.4 | |
| 20260505021557 | 58 | 0.0 | 0.0 | 0.00 | 0.14 | 0.00 | 94 | 1013.6 | |
| 20260505020614 | 58 | 0.0 | 0.0 | 0.00 | 0.14 | 0.00 | 94 | 1013.6 | |
| 20260505015612 | 58 | 0.0 | 0.0 | 0.00 | 0.14 | 0.00 | 95 | 1013.8 | |
| 20260505014609 | 58 | 0.0 | 0.0 | 0.00 | 0.14 | 0.00 | 95 | 1013.8 | |
| 20260505013606 | 57 | 0.0 | 0.0 | 0.00 | 0.14 | 0.00 | 94 | 1014.0 | |
| 20260505012604 | 57 | 0.0 | 0.0 | 0.00 | 0.14 | 0.00 | 94 | 1014.1 | |
| 20260505011601 | 57 | 0.0 | 0.0 | 0.00 | 0.14 | 0.00 | 94 | 1014.3 | |
| 20260505010558 | 58 | 0.0 | 0.0 | 0.00 | 0.14 | 0.00 | 94 | 1014.4 | |
| 20260505005556 | 58 | 0.0 | 0.0 | 0.00 | 0.14 | 0.00 | 94 | 1014.6 | |
| 20260505004558 | 59 | 0.0 | 2.0 | 0.00 | 0.14 | 0.00 | 93 | 1014.6 | |
| 20260505003550 | 59 | 128 | 3.0 | 4.0 | 0.00 | 0.14 | 0.00 | 94 | 1014.6 |
| 20260505002548 | 59 | 143 | 3.0 | 6.0 | 0.00 | 0.14 | 0.00 | 95 | 1014.6 |
| 20260505001545 | 59 | 98 | 1.0 | 4.0 | 0.00 | 0.14 | 0.00 | 95 | 1014.6 |
| 20260505000543 | 59 | 136 | 2.0 | 4.0 | 0.00 | 0.14 | 0.00 | 95 | 1014.8 |
| 20260504235540 | 60 | 120 | 3.0 | 7.0 | 0.00 | 0.14 | 0.00 | 95 | 1014.9 |
| 20260504234537 | 60 | 111 | 2.0 | 6.0 | 0.00 | 0.14 | 0.00 | 95 | 1015.0 |
| 20260504233535 | 60 | 118 | 3.0 | 6.0 | 0.00 | 0.14 | 0.00 | 94 | 1014.8 |
| 20260504232532 | 60 | 113 | 2.0 | 4.0 | 0.00 | 0.14 | 0.00 | 95 | 1014.8 |
| 20260504231530 | 60 | 132 | 3.0 | 4.0 | 0.00 | 0.14 | 0.00 | 95 | 1014.7 |
| 20260504230527 | 60 | 128 | 2.0 | 4.0 | 0.00 | 0.14 | 0.00 | 95 | 1014.8 |
| 20260504225545 | 60 | 130 | 2.0 | 4.0 | 0.00 | 0.14 | 0.00 | 94 | 1014.7 |
| 20260504224522 | 60 | 138 | 2.0 | 6.0 | 0.00 | 0.14 | 0.00 | 94 | 1014.8 |
| 20260504223519 | 60 | 113 | 2.0 | 4.0 | 0.00 | 0.14 | 0.00 | 93 | 1014.7 |
| 20260504222516 | 60 | 119 | 1.0 | 2.0 | 0.00 | 0.14 | 0.00 | 92 | 1014.5 |
| 20260504221614 | 60 | 0.0 | 0.0 | 0.00 | 0.14 | 0.00 | 90 | 1014.6 | |
| 20260504220612 | 60 | 0.0 | 0.0 | 0.00 | 0.14 | 0.00 | 91 | 1014.4 | |
| 20260504215629 | 60 | 0.0 | 0.0 | 0.00 | 0.14 | 0.14 | 90 | 1014.4 | |
| 20260504214606 | 61 | 0.0 | 2.0 | 0.00 | 0.14 | 0.14 | 90 | 1014.5 | |
| 20260504213603 | 60 | 135 | 0.0 | 2.0 | 0.00 | 0.14 | 0.14 | 90 | 1014.5 |
| 20260504212621 | 60 | 0.0 | 0.0 | 0.00 | 0.14 | 0.14 | 91 | 1014.3 | |
| 20260504211559 | 60 | 0.0 | 0.0 | 0.00 | 0.14 | 0.14 | 92 | 1014.5 | |
| 20260504210556 | 60 | 0.0 | 0.0 | 0.00 | 0.14 | 0.14 | 92 | 1014.4 | |
| 20260504205553 | 60 | 0.0 | 0.0 | 0.00 | 0.14 | 0.14 | 91 | 1014.3 | |
| 20260504204551 | 61 | 0.0 | 0.0 | 0.00 | 0.14 | 0.14 | 91 | 1014.3 | |
| 20260504203548 | 61 | 0.0 | 0.0 | 0.00 | 0.14 | 0.14 | 91 | 1014.3 | |
| 20260504202545 | 61 | 132 | 2.0 | 4.0 | 0.00 | 0.14 | 0.14 | 91 | 1014.2 |
| 20260504201543 | 61 | 164 | 2.0 | 4.0 | 0.00 | 0.14 | 0.14 | 91 | 1014.2 |
| 20260504200540 | 62 | 140 | 0.0 | 2.0 | 0.00 | 0.14 | 0.14 | 91 | 1014.0 |
| 20260504195538 | 62 | 0.0 | 0.0 | 0.00 | 0.14 | 0.14 | 91 | 1013.9 | |
| 20260504194535 | 62 | 0.0 | 0.0 | 0.00 | 0.14 | 0.14 | 91 | 1013.8 | |
| 20260504193532 | 62 | 0.0 | 0.0 | 0.00 | 0.14 | 0.14 | 90 | 1013.8 | |
| 20260504192530 | 62 | 0.0 | 2.0 | 0.00 | 0.14 | 0.14 | 90 | 1013.5 | |
| 20260504191527 | 63 | 23 | 0.0 | 2.0 | 0.00 | 0.14 | 0.14 | 89 | 1013.6 |
| 20260504190524 | 63 | 0.0 | 0.0 | 0.00 | 0.14 | 0.14 | 88 | 1013.6 | |
| 20260504185542 | 63 | 0.0 | 0.0 | 0.00 | 0.14 | 0.14 | 87 | 1013.7 | |
| 20260504184519 | 64 | 158 | 0.0 | 2.0 | 0.00 | 0.14 | 0.14 | 87 | 1013.6 |
| 20260504183557 | 64 | 138 | 1.0 | 4.0 | 0.00 | 0.14 | 0.14 | 86 | 1013.4 |
| 20260504182614 | 64 | 101 | 3.0 | 4.0 | 0.00 | 0.14 | 0.14 | 86 | 1013.5 |
| 20260504181632 | 64 | 121 | 3.0 | 6.0 | 0.00 | 0.14 | 0.14 | 85 | 1013.5 |
| 20260504180609 | 64 | 143 | 3.0 | 6.0 | 0.00 | 0.14 | 0.14 | 85 | 1013.6 |
| 20260504175606 | 65 | 133 | 3.0 | 8.0 | 0.00 | 0.14 | 0.14 | 83 | 1013.4 |
| 20260504174603 | 66 | 113 | 2.0 | 6.0 | 0.00 | 0.14 | 0.14 | 81 | 1013.7 |
| 20260504173601 | 68 | 111 | 2.0 | 4.0 | 0.00 | 0.14 | 0.14 | 79 | 1013.5 |
| 20260504172558 | 70 | 233 | 1.0 | 4.0 | 0.00 | 0.14 | 0.14 | 76 | 1013.5 |
| 20260504171556 | 70 | 197 | 2.0 | 4.0 | 0.00 | 0.14 | 0.14 | 75 | 1013.6 |
| 20260504170553 | 69 | 113 | 0.0 | 4.0 | 0.00 | 0.14 | 0.14 | 78 | 1013.5 |
| 20260504150552 | 67 | 228 | 0.0 | 2.0 | 0.00 | 0.14 | 0.14 | 83 | 1013.6 |
| 20260504140556 | 70 | 166 | 3.0 | 7.0 | 0.00 | 0.14 | 0.14 | 80 | 1013.9 |
| 20260504130520 | 73 | 145 | 3.0 | 6.0 | 0.00 | 0.14 | 0.14 | 74 | 1014.2 |
| 20260504110549 | 67 | 280 | 1.0 | 4.0 | 0.00 | 0.14 | 0.14 | 83 | 1015.3 |
| 20260504100534 | 63 | 207 | 2.0 | 6.0 | 0.00 | 0.14 | 0.14 | 91 | 1015.7 |
| 20260504081605 | 63 | 185 | 2.0 | 4.0 | 0.00 | 0.14 | 0.14 | 95 | 1015.8 |
| 20260504080602 | 63 | 203 | 0.0 | 2.0 | 0.00 | 0.14 | 0.14 | 96 | 1015.7 |
| 20260504050516 | 61 | 0.0 | 0.0 | 0.00 | 0.14 | 0.14 | 98 | 1015.0 | |
| 20260504045613 | 60 | 0.0 | 0.0 | 0.00 | 0.14 | 0.14 | 98 | 1014.8 | |
| 20260504044631 | 60 | 0.0 | 0.0 | 0.00 | 0.14 | 0.14 | 98 | 1014.8 | |
| 20260504043608 | 60 | 0.0 | 0.0 | 0.00 | 0.14 | 0.14 | 98 | 1014.7 | |
| 20260504042605 | 60 | 0 | 0.0 | 2.0 | 0.00 | 0.14 | 0.14 | 98 | 1014.8 |